Покров

Украина / Днепропетровская область     47°39′21″N   34°06′10″E
темп.,
°C
ветер,
м/с
пор.,
м/с
влажн.,
%
обл.,
%
осадки,
мм/ч
давл.,
гПа
погр.,
м
18 апреля, вс
вс1800:00+7всв336872 0.0 101929
03:00+7св1272100 0.0 101910
06:00+6с338132 0.0 101930
09:00+10ссв2164100 0.0 1018386
12:00+14ю3348100 0.0 10181677
15:00+15ююв334392 0.0 10171721
18:00+14ююв3349100 0.0 1016576
21:00+10ю115896 0.0 101612
19 апреля, пн
пн1900:00+9юв116695 0.0 101711
03:00+9вюв006999 0.0 101610
06:00+9с2273100 0.1 101626
09:00+11св226290 0.1 1016477
12:00+13ссв215395 0.1 10151469
15:00+14вюв1151100 0.3 10141338
18:00+14всв125585 0.1 10131140
21:00+12св3365100 0.2 101370
20 апреля, вт
вт2000:00+10св3474100 0.0 101278
03:00+10св4972100 0.0 1009276
06:00+9всв51084100 1.1 1006510
09:00+9ссв81393100 8.6 1003654
12:00+8с91492100 8.4 1000862
15:00+8ссз91492100 11.5 999914
18:00+8зсз101490100 6.2 10021208
21:00+9зсз81385100 6.9 1006672
21 апреля, ср
ср2100:00+8з61184100 0.1 1008510
03:00+6з510915 0.1 1011240
06:00+5зюз489274 0.0 1013179
09:00+9з58695 0.0 1015777
12:00+13з684969 0.0 10151886
15:00+14зсз574472 0.0 10162014
18:00+14юз455361 0.0 10171085
21:00+11ю356555 0.0 1018106
22 апреля, чт
чт2200:00+8юз37885 0.0 1019129
03:00+7ю359331 0.0 1019101
06:00+6ю359443 0.0 102092
09:00+11ю467748 0.0 1020502
12:00+16ююз55587 0.2 10201345
15:00+17юз564895 2.5 10191862
18:00+15юз6962100 0.3 1019449
21:00+11ююз49765 0.3 1021185